* Astronomy

Members Login
Username 
 
Password 
    Remember Me  
Post Info TOPIC: Asteroid 2011 EF15


L

Posts: 131433
Date:
Asteroid 2011 EF15
Permalink  
 


Orbital elements:
2011 EF15 Earth MOID = 0.2776 AU
Epoch 2011 Feb. 8.0 TT = JDT 2455600.5 MPC
M 324.78054 (2000.0) P Q
n 0.26100031 Peri. 234.55070 -0.59485388 +0.80383385
a 2.4249830 Node 358.94707 -0.73584843 -0.54458995
e 0.4685904 Incl. 0.29085 -0.32353662 -0.23931764
P 3.78 H 20.0 G 0.15 U 9

MPEC 2011 - E35


__________________
Page 1 of 1  sorted by
 
Quick Reply

Please log in to post quick replies.



Create your own FREE Forum
Report Abuse
Powered by ActiveBoard